Wind_Speed
41 42 42 43 44 45 46 48 50 52 54 56 58 60 62 64 65 67 68 70 71 72 74 75 76 77 78 78 79 81 82 83 84 85 86 88 89 90 91 93 94 95
40 41 43 44 46 48 50 53 55 57 59 61 63 65 66 68 69 71 72 73 74 75 76 77 78 79 80 81 81 82 83 84 84 86 87 88 89 90 91 93 94 95
42 43 45 47 49 52 55 57 60 62 64 66 67 69 70 71 72 74 75 76 77 78 79 80 81 82 82 83 83 83 84 84 85 86 87 87 89 89 90 91 92 93
46 47 49 52 54 56 59 62 64 66 68 69 71 72 73 74 76 77 78 78 79 79 79 79 80 80 80 80 81 81 82 83 84 84 85 85 86 87 88 89 89 90
50 52 54 56 59 62 64 66 68 69 71 72 73 75 75 76 76 76 75 75 75 74 74 74 74 74 75 75 77 78 79 80 81 82 83 83 84 85 86 87 88 89
56 58 60 62 64 66 67 68 70 71 72 72 72 72 71 70 70 69 69 68 68 68 67 68 68 69 70 71 72 74 76 77 79 80 80 81 82 83 84 85 86 87
61 63 64 66 68 69 69 70 69 69 67 66 65 64 64 64 64 64 64 64 64 65 65 66 66 67 67 68 69 71 73 75 77 79 80 81 81 82 83 84 85 87
64 65 66 66 67 67 66 64 63 61 60 60 60 61 61 62 62 62 63 64 64 65 66 66 67 68 68 69 70 72 73 75 78 80 82 83 84 84 85 87 88 89
61 61 60 60 59 58 57 56 56 56 57 58 58 59 60 61 61 62 63 64 65 66 67 68 70 71 73 74 76 77 78 79 81 83 85 86 87 88 89 90 91 93
53 52 51 51 50 51 52 52 54 55 56 57 58 59 60 61 62 64 65 66 68 69 71 73 75 76 78 80 81 83 84 85 86 87 89 89 90 91 92 94 95 97
47 47 47 48 49 50 51 53 54 56 57 58 59 61 62 63 65 66 68 70 72 74 76 78 80 81 83 85 86 87 88 89 89 91 92 93 94 94 95 97 99 101
45 47 48 49 50 51 53 54 56 57 59 60 62 63 65 66 68 70 72 73 75 77 79 81 83 85 86 88 89 90 91 92 92 94 95 97 97 97 98 101 103 105
46 48 49 50 51 53 54 56 58 59 61 63 65 66 68 70 71 73 75 76 78 80 81 83 85 87 88 90 91 92 93 94 95 96 98 100 100 100 101 104 106 109
48 49 50 52 53 55 57 59 61 63 65 66 68 69 71 72 74 75 77 78 80 82 84 86 88 89 90 92 93 94 95 96 96 97 100 102 102 102 104 107 110 112
50 52 53 55 57 58 60 62 64 66 67 69 70 72 73 75 76 78 79 81 82 84 86 88 90 91 92 94 95 96 97 97 98 99 103 104 104 105 107 110 113 116
53 55 57 59 61 62 64 65 67 68 70 71 72 74 75 77 78 80 81 83 84 86 88 89 91 92 94 95 97 98 98 98 99 102 105 106 106 108 111 114 116 119
57 59 61 62 64 65 66 68 69 70 72 73 74 76 77 79 80 82 83 84 86 88 89 91 93 95 95 96 98 99 99 99 101 105 107 108 109 112 114 117 119 122
61 62 64 65 66 67 68 70 71 72 74 75 76 77 79 80 82 83 85 86 88 90 92 94 95 96 96 97 98 99 99 101 104 107 109 110 112 115 117 119 121 123
63 64 65 66 67 69 70 71 73 74 75 76 77 78 80 81 83 85 87 89 90 91 93 94 96 96 97 98 99 99 100 103 107 109 110 112 114 117 119 121 123 122
64 65 66 68 69 70 71 72 74 75 76 77 78 80 82 84 85 87 89 90 91 92 93 95 96 97 98 99 99 100 101 105 108 110 112 114 116 118 121 122 121 118
65 66 67 68 70 71 72 73 75 76 77 78 80 82 84 86 87 88 89 91 91 92 93 94 96 97 98 99 99 100 103 107 109 111 113 115 117 119 121 120 116 108
66 67 68 69 70 72 73 75 76 78 79 81 83 85 86 87 88 89 90 91 91 92 93 94 96 97 98 99 100 102 105 108 110 112 114 115 118 120 119 116 108 98
67 68 69 70 72 73 75 77 79 80 81 83 84 86 87 88 88 89 90 91 91 92 93 94 96 98 98 99 101 104 107 109 111 112 114 116 118 119 115 108 99 89
69 70 71 73 74 76 78 79 81 82 83 84 85 86 87 88 89 89 90 91 91 93 94 95 96 97 98 100 103 106 108 110 112 113 115 117 118 115 109 100 89 82
71 72 73 75 77 78 80 81 82 83 84 85 86 87 87 88 89 89 90 91 92 94 95 96 96 96 99 102 105 108 109 111 112 114 115 117 115 110 101 91 83 78
72 74 75 77 79 80 81 83 83 84 85 85 86 87 88 89 89 90 91 92 93 95 96 96 95 96 100 104 106 108 110 112 113 114 116 115 111 103 93 84 78 75
Wind_Direction
274 276 277 278 279 279 281 284 286 288 290 292 293 294 294 294 294 294 295 295 295 295 295 294 294 293 292 292 291 290 290 289 288 287 287 286 285 285 285 284 284 283
279 280 280 280 281 282 284 286 288 290 291 293 293 294 294 294 294 294 294 294 294 294 294 293 293 293 292 292 292 291 291 290 290 289 288 287 287 286 285 285 284 283
283 283 283 284 285 286 288 290 291 292 292 293 293 294 294 294 294 294 294 294 294 294 294 294 293 293 293 293 293 293 293 293 293 292 292 291 290 290 289 288 287 287
284 286 287 288 289 290 291 292 293 293 293 293 293 293 294 294 294 294 294 294 294 294 294 294 294 295 295 295 295 296 295 295 295 294 294 294 293 292 291 291 290 289
287 288 289 290 291 292 292 293 293 293 293 293 293 293 293 293 294 294 294 294 295 295 296 297 297 297 298 298 298 298 298 297 297 296 296 295 295 294 293 292 292 291
290 291 291 292 292 292 293 293 293 293 293 293 293 293 294 294 294 295 296 296 297 298 299 299 300 300 301 301 301 301 300 299 298 297 296 295 295 294 293 292 291 291
291 291 291 291 291 292 292 293 293 294 294 294 295 295 296 296 297 298 298 299 300 300 301 301 302 303 304 305 306 306 305 303 301 298 296 295 294 293 292 292 291 290
290 290 290 290 291 292 292 293 294 295 295 296 296 297 298 298 299 299 300 300 301 301 302 303 304 305 306 307 307 308 308 307 306 303 300 297 295 295 294 294 293 293
290 290 291 292 292 293 294 294 295 296 296 297 298 298 299 299 300 300 301 301 302 303 304 304 305 305 305 306 306 306 307 308 308 308 306 302 299 297 297 297 297 297
293 293 294 295 295 295 296 296 296 297 297 298 299 299 300 300 301 301 302 303 303 304 304 304 304 304 304 304 304 305 305 306 307 308 308 306 302 300 299 299 300 300
295 296 297 297 297 297 297 297 297 298 299 299 300 300 301 301 302 302 303 303 303 303 303 303 303 303 303 304 304 304 304 304 305 306 307 307 304 302 301 301 302 302
296 296 297 297 297 297 297 297 298 299 299 300 300 301 301 301 302 302 302 302 302 302 302 302 302 303 303 303 304 304 303 303 303 304 306 307 306 303 302 303 303 304
295 296 296 296 297 297 297 298 298 299 300 300 300 300 300 301 301 301 301 301 301 301 301 302 302 303 303 303 304 304 303 303 303 303 305 306 306 304 304 304 305 305
296 297 297 297 297 297 298 298 298 298 299 299 299 299 299 299 300 300 300 300 301 301 302 302 303 303 303 304 304 303 303 303 303 303 305 306 305 305 305 306 306 307
297 297 297 297 297 297 297 297 297 297 298 298 298 298 299 299 300 300 301 301 302 302 303 303 303 304 304 304 304 304 303 303 303 304 305 306 306 306 306 307 308 308
296 296 296 296 296 296 296 297 297 297 297 298 298 299 299 300 300 301 302 302 303 303 304 304 304 305 305 305 304 304 303 303 303 305 306 306 306 307 308 309 310 310
295 295 295 296 296 297 297 297 298 298 298 299 299 300 301 301 302 302 303 303 304 305 305 305 305 305 304 304 304 304 304 304 305 306 307 307 308 309 309 310 311 311
295 295 296 297 297 298 298 298 299 299 300 300 301 301 302 302 303 303 304 305 305 305 305 305 305 305 304 304 305 305 305 305 307 308 308 308 309 310 310 311 312 312
296 296 297 297 298 298 299 299 299 300 300 301 302 302 302 303 304 304 304 304 304 305 305 305 305 305 305 305 305 305 306 307 308 309 309 309 310 311 311 312 313 313
296 297 298 298 299 299 299 300 300 300 301 302 302 303 303 303 304 304 304 304 304 305 305 305 305 305 305 306 306 306 307 308 309 309 309 310 311 312 312 313 314 313
298 298 299 299 300 300 300 300 301 301 302 303 303 303 303 303 304 304 304 304 304 305 306 306 306 306 306 307 307 307 307 308 309 309 310 311 312 313 314 314 314 313
299 300 300 300 301 301 301 301 302 302 303 303 303 303 304 304 304 304 304 305 305 306 306 307 307 307 307 307 307 307 308 309 309 310 311 312 313 314 315 315 314 312
300 301 301 301 301 302 302 302 302 303 303 303 304 304 304 304 304 305 305 305 306 306 307 307 307 307 307 308 308 308 309 310 311 312 312 313 314 315 315 315 313 311
301 301 301 302 302 302 302 302 302 303 303 304 304 305 305 305 305 305 306 306 307 307 308 308 308 308 308 308 309 309 310 311 312 313 313 314 315 316 316 314 312 311
301 301 301 302 302 302 302 302 303 303 304 304 305 305 306 306 306 306 307 307 308 308 308 308 308 309 309 309 310 311 311 312 313 314 315 315 316 316 315 314 312 311
301 301 301 301 301 302 302 302 303 304 304 305 306 306 306 306 307 307 308 308 308 309 309 309 309 309 310 310 311 312 313 314 314 315 316 316 317 316 315 313 312 312
Height
5752 5752 5751 5750 5749 5748 5747 5746 5744 5743 5741 5739 5738 5736 5734 5732 5730 5727 5725 5723 5721 5719 5716 5714 5712 5709 5707 5704 5701 5698 5696 5693 5690 5687 5684 5680 5678 5675 5672 5669 5666 5663
5749 5748 5747 5746 5745 5744 5742 5741 5739 5737 5735 5733 5731 5729 5727 5725 5723 5720 5718 5715 5712 5710 5708 5705 5702 5700 5697 5694 5691 5688 5685 5682 5679 5676 5673 5669 5666 5663 5660 5657 5654 5650
5744 5743 5741 5740 5739 5737 5736 5734 5732 5730 5728 5726 5723 5721 5719 5716 5714 5711 5709 5706 5703 5700 5698 5695 5692 5689 5686 5683 5680 5677 5674 5671 5668 5664 5661 5657 5654 5651 5647 5644 5640 5637
5738 5737 5735 5734 5732 5730 5728 5726 5724 5722 5720 5718 5715 5713 5710 5707 5704 5701 5699 5696 5693 5690 5687 5684 5682 5679 5676 5673 5670 5667 5663 5660 5657 5653 5650 5646 5642 5638 5635 5631 5628 5624
5733 5731 5730 5728 5726 5724 5722 5719 5717 5715 5712 5709 5707 5704 5701 5698 5695 5692 5689 5686 5683 5680 5677 5675 5672 5669 5667 5664 5661 5657 5654 5650 5647 5643 5639 5635 5631 5627 5623 5620 5616 5612
5726 5724 5723 5721 5719 5716 5714 5712 5709 5706 5704 5701 5698 5695 5692 5689 5687 5684 5681 5678 5675 5672 5670 5667 5664 5662 5659 5656 5653 5649 5646 5642 5638 5635 5631 5626 5622 5618 5613 5609 5605 5601
5720 5718 5716 5714 5712 5709 5706 5704 5701 5698 5695 5692 5690 5687 5684 5682 5679 5676 5673 5670 5668 5665 5662 5659 5656 5653 5650 5647 5644 5640 5637 5634 5630 5626 5622 5617 5613 5608 5603 5599 5595 5590
5714 5712 5709 5707 5704 5701 5698 5696 5693 5690 5687 5685 5682 5680 5677 5675 5672 5669 5666 5663 5660 5656 5653 5650 5647 5644 5641 5638 5635 5631 5628 5624 5620 5616 5611 5607 5602 5597 5592 5587 5582 5578
5706 5703 5701 5698 5696 5693 5691 5688 5686 5683 5681 5678 5676 5673 5670 5667 5665 5661 5658 5655 5651 5648 5644 5641 5638 5635 5631 5628 5625 5621 5618 5613 5609 5604 5600 5595 5590 5584 5579 5574 5569 5565
5697 5695 5693 5691 5688 5686 5684 5682 5679 5677 5674 5671 5668 5666 5662 5659 5656 5653 5650 5646 5643 5639 5636 5632 5629 5626 5622 5618 5615 5611 5607 5603 5598 5593 5588 5583 5578 5572 5566 5561 5556 5550
5690 5688 5686 5684 5682 5680 5677 5675 5672 5670 5667 5664 5661 5658 5655 5652 5649 5645 5642 5638 5635 5631 5628 5624 5620 5617 5613 5609 5605 5601 5596 5592 5587 5582 5578 5572 5566 5560 5554 5548 5542 5536
5684 5682 5680 5677 5675 5673 5671 5668 5665 5663 5660 5657 5654 5651 5648 5645 5641 5638 5634 5630 5627 5623 5619 5615 5610 5607 5603 5599 5595 5590 5586 5581 5576 5571 5566 5561 5554 5548 5541 5535 5529 5522
5678 5676 5674 5671 5669 5667 5664 5661 5659 5656 5653 5650 5647 5644 5641 5637 5633 5630 5626 5622 5618 5613 5609 5605 5601 5597 5593 5588 5584 5579 5575 5570 5565 5560 5555 5549 5542 5535 5529 5522 5515 5507
5672 5670 5668 5665 5663 5661 5658 5655 5652 5649 5646 5643 5640 5636 5633 5629 5625 5621 5617 5613 5608 5604 5599 5594 5590 5586 5581 5577 5572 5568 5563 5558 5553 5548 5543 5537 5531 5523 5516 5508 5500 5492
5666 5664 5662 5659 5657 5655 5652 5649 5646 5643 5639 5636 5632 5629 5625 5621 5617 5613 5609 5604 5599 5594 5589 5584 5579 5575 5569 5565 5560 5555 5551 5546 5541 5536 5530 5524 5518 5510 5502 5494 5485 5477
5661 5659 5656 5654 5651 5648 5646 5642 5639 5636 5632 5628 5624 5621 5617 5612 5608 5604 5599 5595 5590 5584 5579 5573 5568 5563 5558 5552 5547 5542 5538 5534 5529 5523 5516 5509 5503 5496 5487 5479 5470 5460
5655 5653 5650 5648 5644 5641 5638 5635 5632 5628 5624 5620 5616 5612 5608 5603 5599 5594 5589 5585 5580 5574 5569 5563 5557 5552 5547 5541 5535 5529 5524 5521 5516 5509 5502 5494 5486 5479 5471 5462 5454 5445
5649 5646 5643 5640 5637 5634 5631 5627 5623 5620 5616 5611 5607 5603 5598 5594 5589 5584 5579 5574 5569 5564 5558 5552 5547 5541 5536 5530 5524 5518 5512 5507 5502 5495 5488 5480 5472 5463 5455 5447 5438 5430
5641 5639 5635 5632 5629 5626 5622 5619 5615 5611 5607 5603 5599 5594 5590 5585 5579 5574 5569 5564 5560 5554 5548 5542 5535 5530 5525 5518 5512 5506 5500 5495 5489 5482 5474 5466 5458 5449 5441 5432 5422 5413
5634 5631 5628 5625 5622 5618 5614 5610 5606 5603 5599 5595 5590 5586 5581 5576 5571 5565 5560 5555 5550 5545 5539 5531 5524 5519 5513 5507 5500 5494 5489 5483 5476 5469 5461 5452 5444 5435 5426 5417 5407 5397
5627 5624 5621 5617 5614 5610 5606 5602 5598 5595 5591 5587 5582 5577 5572 5567 5563 5557 5551 5546 5540 5534 5529 5521 5513 5507 5501 5495 5489 5483 5477 5471 5464 5456 5448 5439 5430 5422 5413 5403 5393 5384
5619 5616 5613 5610 5606 5602 5598 5594 5590 5587 5583 5578 5573 5568 5563 5558 5553 5548 5542 5536 5530 5524 5519 5511 5503 5496 5490 5483 5477 5471 5465 5459 5452 5444 5435 5427 5418 5409 5400 5390 5380 5372
5612 5609 5606 5602 5598 5594 5590 5586 5582 5578 5574 5570 5564 5559 5554 5548 5544 5538 5532 5526 5521 5514 5508 5502 5493 5485 5478 5472 5465 5459 5453 5446 5439 5432 5423 5414 5406 5396 5387 5378 5369 5360
5605 5601 5598 5594 5590 5586 5582 5577 5573 5569 5565 5560 5555 5550 5545 5539 5534 5528 5521 5515 5510 5504 5497 5492 5484 5475 5467 5460 5453 5445 5440 5433 5426 5419 5411 5402 5394 5384 5375 5365 5358 5351
5597 5594 5590 5586 5582 5577 5573 5569 5564 5560 5555 5550 5546 5541 5535 5529 5524 5519 5512 5505 5499 5493 5486 5480 5474 5465 5456 5449 5441 5433 5426 5420 5413 5405 5398 5389 5380 5372 5363 5355 5347 5341
5589 5586 5582 5578 5573 5568 5564 5559 5555 5551 5546 5541 5536 5531 5525 5519 5514 5509 5502 5495 5488 5482 5475 5469 5463 5456 5446 5437 5430 5421 5413 5406 5399 5391 5383 5376 5368 5359 5352 5345 5338 5332